Location: *
(48.8489°N, 2.3218°E)
Time: 04:24:45
(UTC+00:00)

Cosmos 1697 Rocket - Pass Details

Date: 23 August 2019
Orbit: 831 x 845 km, 71.0° (Epoch: 21 September)

Event Time Altitude Azimuth Distance (km) Brightness Sun altitude
Rises 21:47:14 0° 324° (NW) 3,415 7.3 -23.7°
Reaches altitude 10° 21:49:55 10° 315° (NW) 2,476 6.2 -24.0°
Maximum altitude 21:54:49 31° 255° (WSW) 1,448 4.0 -24.4°
Enters shadow 21:56:49 25° 220° (SW) 1,661 4.0 -24.6°
